Home   Weather   Stafford   Past weeks

Flag for United Kingdom Past Weather in Stafford, England, United Kingdom — Yesterday and Last 2 Weeks

Now
37 °F

Rain showers. Partly cloudy.


Feels Like: 37 °F
Forecast: N/A
Wind: 2 mph from Southwest

Location: Shawbury

Current Time: Jan 22, 2017 at 8:30:00 pm

Latest Report: Jan 22, 2017 at 7:50 pm


Visibility: 1 mi

Pressure: 30.30 "Hg

Humidity: 93%

Dew Point: 36 °F

Location of StaffordLocation

Past Weather in Stafford — Graph

°F

Stafford Temperature Yesterday

Maximum temperature yesterday: 37 °F (at 1:50 pm)
Minimum temperature yesterday: 27 °F (at 5:50 am)
Average temperature yesterday: 34 °F

High & Low Weather Summary for the Past Weeks

 TemperatureHumidityPressure
High54 °F (Jan 11, 3:50 am)100% (Jan 7, 9:50 pm)30.66 "Hg (Jan 7, 9:50 pm)
Low27 °F (Jan 21, 5:50 am)46% (Jan 11, 2:50 pm)29.45 "Hg (Jan 12, 4:21 pm)
Average42 °F88%30.21 "Hg
* Reported Jan 7 6:50 pm — Jan 22 6:50 pm, Stafford, Weather by CustomWeather, © 2017

Note: Actual official high and low records may vary slightly from our data, if they occured in-between our weather recording intervals... More about our weather records

Advertising

Stafford Weather History for the Previous 24 Hours

Scroll right to see more
 ConditionsComfort  
Time TempWeatherWind HumidityBarometerVisibility
6:50 pm
Sun, Jan 22
37 °FOvercast.No wind93%30.27 "Hg2 mi
5:50 pm37 °FOvercast.5 mph93%30.27 "Hg2 mi
4:50 pm37 °FFog.1 mph93%30.27 "Hg2 mi
3:50 pm39 °FOvercast.1 mph87%30.24 "Hg2 mi
2:50 pm37 °FOvercast.5 mph93%30.24 "Hg2 mi
1:50 pm37 °FOvercast.5 mph87%30.24 "Hg2 mi
12:50 pm36 °FPartly sunny.5 mph87%30.24 "Hg2 mi
11:50 am36 °FPartly sunny.6 mph87%30.27 "Hg2 mi
10:50 am34 °FPartly sunny.5 mph93%30.27 "Hg2 mi
9:50 am32 °FLight snow. Broken clouds.5 mph100%30.27 "Hg2 mi
8:50 am32 °FSnow flurries. Overcast.3 mph93%30.24 "Hg2 mi
7:50 am32 °FSprinkles. Overcast.3 mph93%30.24 "Hg3 mi
6:50 am32 °FPassing clouds.6 mph87%30.24 "Hg3 mi
5:50 am32 °FPartly cloudy.1 mph87%30.21 "Hg4 mi
4:50 am32 °FOvercast.1 mph87%30.24 "Hg4 mi
3:50 am32 °FOvercast.5 mph87%30.21 "Hg4 mi
2:50 am32 °FPassing clouds.1 mph87%30.21 "Hg4 mi
1:50 am30 °FPassing clouds.3 mph93%30.24 "Hg5 mi
12:50 am30 °FHaze.3 mph93%30.24 "Hg4 mi
11:50 pm
Sat, Jan 21
32 °FHaze.3 mph87%30.24 "Hg4 mi
10:50 pm34 °FPassing clouds.9 mph81%30.24 "HgN/A
9:50 pm37 °FPassing clouds.6 mph81%30.24 "Hg5 mi
8:50 pm37 °FOvercast.7 mph87%30.24 "Hg4 mi
Weather by CustomWeather, © 2017

See weather overviewHow to use our weather pages